STARLINK-32791, 62530

Orbit data source: Space-Track

STARLINK-32791, 62530 is a payload satellite owned by SpaceX/Seattle (US) in LEO that was launched on Wed, 08 Jan 2025 UTC via an FALCON 9 launch vehicle from the Air Force Eastern Test Range (AFETR). Payloads include a variety of satellites, spacecraft, and rockets equipped with specific instruments for various scientific and technological missions. These include communications satellites like Starlink; space stations such as the ISS; scientific satellites like the Hubble; Earth observation satellites from companies like Planet Labs, Umbra, and HawkEye 360; GPS; miniature CubeSats for education and research; and military/defense satellites.

Loading next visibility...
STARLINK-32791 details
Identifier
62530, 2025-004V
Orbit
LEO
Last TLE update8 hours ago
Origin
Flag of USSpaceX/Seattle (US)
ManufacturerSpaceX/Seattle
MissionOperational spacecraft
Bus & MotorSTARLINK V2M, Unknown motor
Mass730 kg wet, ~700 kg dry
Launch date (UTC)
2025-01-08 (1 month ago)
Launch vehicle
FALCON 9
Launch site
Air Force Eastern Test Range (AFETR)
Object type
Payload
Rocket body
Debris
Shape & HBRUnknown
Radar Cross SectionLarge (>1 m²)

Expand to show TLE details & history

TLE from 8 hours ago
0 STARLINK-32791
1 62530U 25004V   25035.83335648 -.00008010  00000-0 -13096-3 0  9995
2 62530  42.9984 311.8710 0001488 258.0876  66.1745 15.50556880  5526
Epoch: 2025-02-04T20:00Z
Definitive object data (Epoch: 2025-02-04T20:00:01.999Z)
Latitude-23.63102°
Longitude-151.18483°
Altitude420.344 km
Speed7.66 km/s
True Right ascension18h 56m 13s
True Declination-23° 29' 55"
Sunlit
Object was in daylight at TLE epoch
Visualization TLE readout
Latitude10.88611°
Longitude-113.47363°
Altitude414.565 km
Speed7.665 km/s
Apparent Right ascension20h 00m 06s
Apparent Declination-15° 00' 39"
Sunlit
Object is in daylight
Visualization observer readout
Local Sidereal Time05:58:56
Azimuth304.631° NW
Elevation-53.693°
Doppler factor1
Orbital elements
Apogee altitude418.075 km
Perigee altitude416.053 km
Semi-major axis6,795.201 km
Eccentricity0.0001488
Inclination42.9984°
RAAN311.871°
Arg. of periapsis258.0876°
True anomaly66.1901°
Mean anomaly66.1745°
Eccentric anomaly66.1823°
Mean motion3.87471 °/min
BSTAR-0.00013096
Orbital period92.91 mins
Loading maneuver chart data...
Loading historical data...
Loading historical data...
Loading historical data...
Loading historical data...
Loading historical data...
Loading historical data...
Loading historical data...

STARLINK-32791 Visibility forecast

Observer location: undefined°, undefined

Span
Click to sort rows by Start time (UTC) header in descending order
Start Az.
Max El. time (UTC)
Max El. Az.
Max El.
End time (UTC)
End Az.
4 mins2025-02-05 21:06:10.259Z187.343° SSW2025-02-05 21:07:10.259Z162.807° S22.201°2025-02-05 21:10:10.259Z93.46° ESE
5 mins2025-02-05 22:43:10.259Z260.632° W2025-02-05 22:45:10.259Z40.12° NE42.839°2025-02-05 22:48:10.259Z70.776° E
4 mins2025-02-06 00:21:10.259Z303.987° NW2025-02-06 00:22:10.259Z341.089° N35.512°2025-02-06 00:25:10.259Z74.5° E
5 mins2025-02-06 01:58:10.259Z287.915° WNW2025-02-06 02:00:10.259Z120.513° SE44.841°2025-02-06 02:03:10.259Z109.701° ESE
|